Osceola Municipal, IA

11:29 AM CST on November 18, 2017 (GMT -0600)
Osceola Municipal

Weather History for KI75 - February, 2013

Change the Weather History Date:

Monday, February 25, 2013

  Actual Average (KCNC) Record (KCNC)
Temperature  
Mean Temperature 32 °F -  
Max Temperature 38 °F 40 °F 61 °F (1981)
Min Temperature 25 °F 18 °F -9 °F (1967)
Degree Days  
Heating Degree Days 34    
Moisture  
Dew Point 27 °F    
Average Humidity 80    
Maximum Humidity 89    
Minimum Humidity 66    
Precipitation  
Precipitation 0.00 in - - ()
Sea Level Pressure  
Sea Level Pressure 29.98 in    
Wind  
Wind Speed 5 mph (NE)    
Max Wind Speed 14 mph    
Max Gust Speed 16 mph    
Visibility 9 miles    
Events      
Averages and records for this station are not official NWS values.
T = Trace of Precipitation, MM = Missing Value Source: NWS Daily Summary

Daily Weather History Graph

Daily Weather History Graph

Search for Another Location

Airport or City:

Trip Planner

Search our weather history database for the weather conditions in past years. The results will help you decide how hot, cold, wet, or windy it might be!

Date:

Astronomy

Feb. 25, 2013 Rise Set
Actual Time 6:54 AM CST 6:01 PM CST
Civil Twilight 6:26 AM CST 6:29 PM CST
Nautical Twilight 5:55 AM CST 7:01 PM CST
Astronomical Twilight 5:23 AM CST 7:32 PM CST
Moon 6:16 PM CST (2/25) 6:24 AM CST (2/25)
Length of Visible Light 12h 02m
Length of Day
11h 06m
Full, 100% of the Moon is Illuminated
Feb 25
Full
Feb 25
Full
Mar 4
Last Quarter
Mar 11
New
Mar 19
First Quarter

Hourly Weather History & Observations

Time (CST) Temp. Windchill Dew Point Humidity Pressure Visibility Wind Dir Wind Speed Gust Speed Precip Events Conditions
12:15 AM 29.7 °F - 26.4 °F 88% 30.04 in 7.0 mi Calm Calm - N/A   Overcast
12:35 AM 29.5 °F - 26.2 °F 88% 30.04 in 10.0 mi Calm Calm - N/A   Overcast
12:55 AM 29.1 °F - 25.7 °F 87% 30.04 in 10.0 mi Calm Calm - N/A   Mostly Cloudy
1:15 AM 29.3 °F - 25.5 °F 86% 30.05 in 10.0 mi Calm Calm - N/A   Mostly Cloudy
1:35 AM 28.8 °F - 25.5 °F 88% 30.05 in 10.0 mi Calm Calm - N/A   Overcast
1:55 AM 29.8 °F 26.3 °F 25.7 °F 85% 30.04 in 10.0 mi ENE 3.5 mph - N/A   Overcast
2:15 AM 29.3 °F 24.3 °F 25.7 °F 86% 30.04 in 10.0 mi NE 4.6 mph - N/A   Overcast
2:35 AM 28.9 °F 25.2 °F 24.8 °F 84% 30.03 in 10.0 mi East 3.5 mph - N/A   Mostly Cloudy
2:55 AM 28.4 °F 22.2 °F 23.9 °F 83% 30.01 in 10.0 mi NE 5.8 mph - N/A   Scattered Clouds
3:15 AM 28.0 °F 24.2 °F 23.7 °F 84% 30.03 in 10.0 mi East 3.5 mph - N/A   Clear
3:35 AM 27.7 °F 23.8 °F 23.7 °F 85% 30.03 in 10.0 mi NE 3.5 mph - N/A   Mostly Cloudy
3:55 AM 28.4 °F - 24.1 °F 84% 30.03 in 10.0 mi Calm Calm - N/A   Overcast
4:15 AM 25.7 °F 19.0 °F 23.0 °F 89% 30.03 in 10.0 mi North 5.8 mph - N/A   Scattered Clouds
4:35 AM 25.7 °F 20.1 °F 22.6 °F 88% 30.03 in 10.0 mi NNE 4.6 mph - N/A   Clear
4:55 AM 25.7 °F 18.0 °F 22.6 °F 88% 30.02 in 10.0 mi NNE 6.9 mph - N/A   Mostly Cloudy
5:15 AM 27.0 °F 20.5 °F 23.9 °F 88% 30.02 in 7.0 mi NNE 5.8 mph - N/A   Overcast
5:35 AM 26.6 °F 21.2 °F 23.4 °F 88% 30.02 in 10.0 mi NNE 4.6 mph - N/A   Overcast
5:55 AM 26.4 °F 20.9 °F 23.5 °F 89% 30.02 in 7.0 mi NNE 4.6 mph - N/A   Overcast
6:15 AM 27.1 °F 23.2 °F 23.9 °F 88% 30.03 in 7.0 mi ENE 3.5 mph - N/A   Overcast
6:35 AM 27.3 °F 22.0 °F 23.9 °F 87% 30.03 in 7.0 mi East 4.6 mph - N/A   Overcast
6:55 AM 27.5 °F 22.2 °F 24.3 °F 88% 30.03 in 7.0 mi NE 4.6 mph - N/A   Overcast
7:15 AM 27.5 °F 21.1 °F 24.3 °F 88% 30.04 in 7.0 mi North 5.8 mph - N/A   Overcast
7:35 AM 27.5 °F 21.1 °F 24.4 °F 88% 30.05 in 7.0 mi North 5.8 mph - N/A   Overcast
7:55 AM 28.2 °F 23.1 °F 24.8 °F 87% 30.06 in 7.0 mi North 4.6 mph - N/A   Overcast
8:15 AM 28.4 °F 23.3 °F 24.8 °F 86% 30.05 in 7.0 mi NNE 4.6 mph - N/A   Overcast
8:35 AM 29.3 °F 23.2 °F 25.0 °F 84% 30.05 in 7.0 mi NNE 5.8 mph - N/A   Overcast
8:55 AM 29.7 °F 26.1 °F 25.2 °F 83% 30.05 in 7.0 mi North 3.5 mph - N/A   Scattered Clouds
9:15 AM 30.2 °F 25.4 °F 25.2 °F 82% 30.05 in 7.0 mi NNE 4.6 mph - N/A   Scattered Clouds
9:35 AM 31.3 °F 25.6 °F 25.7 °F 80% 30.05 in 10.0 mi NE 5.8 mph - N/A   Clear
9:55 AM 31.3 °F 24.7 °F 26.1 °F 81% 30.05 in 7.0 mi North 6.9 mph - N/A   Scattered Clouds
10:15 AM 32.4 °F 26.0 °F 26.2 °F 78% 30.04 in 10.0 mi North 6.9 mph - N/A   Scattered Clouds
10:35 AM 33.1 °F 26.9 °F 26.4 °F 77% 30.04 in 10.0 mi NNE 6.9 mph - N/A   Clear
10:55 AM 34.3 °F 27.7 °F 27.0 °F 74% 30.05 in 10.0 mi NE 8.1 mph - N/A   Mostly Cloudy
11:15 AM 34.7 °F 29.6 °F 27.0 °F 73% 30.05 in 10.0 mi NNE 5.8 mph - N/A   Scattered Clouds
11:35 AM 35.6 °F 29.2 °F 26.6 °F 70% 30.04 in 10.0 mi NNE 8.1 mph - N/A   Clear
11:55 AM 36.3 °F 29.5 °F 27.3 °F 70% 30.03 in 10.0 mi NE 9.2 mph - N/A   Clear
12:15 PM 37.4 °F 30.8 °F 27.5 °F 67% 30.02 in 10.0 mi NE 9.2 mph - N/A   Scattered Clouds
12:35 PM 37.8 °F 30.7 °F 27.7 °F 67% 30.01 in 10.0 mi NE 10.4 mph - N/A   Clear
12:55 PM 38.3 °F 31.9 °F 27.9 °F 66% 30.00 in 10.0 mi NE 9.2 mph - N/A   Clear
1:15 PM 38.3 °F 31.9 °F 28.2 °F 67% 30.00 in 10.0 mi NE 9.2 mph - N/A   Clear
1:35 PM 38.3 °F 31.9 °F 28.4 °F 68% 29.98 in 10.0 mi NE 9.2 mph - N/A   Clear
1:55 PM 37.9 °F 31.5 °F 28.6 °F 69% 29.98 in 10.0 mi NE 9.2 mph - N/A   Clear
2:15 PM 38.3 °F 32.5 °F 28.4 °F 68% 29.98 in 10.0 mi NE 8.1 mph - N/A   Clear
2:35 PM 38.3 °F 31.9 °F 27.7 °F 66% 29.97 in 10.0 mi ENE 9.2 mph - N/A   Clear
2:55 PM 38.1 °F 32.3 °F 27.7 °F 66% 29.97 in 10.0 mi ENE 8.1 mph - N/A   Clear
3:15 PM 37.4 °F 31.4 °F 28.2 °F 69% 29.97 in 10.0 mi NE 8.1 mph - N/A   Scattered Clouds
3:35 PM 37.0 °F 31.0 °F 27.1 °F 67% 29.95 in 10.0 mi NE 8.1 mph - N/A   Scattered Clouds
3:55 PM 36.5 °F 30.3 °F 28.4 °F 72% 29.95 in 10.0 mi NE 8.1 mph - N/A   Scattered Clouds
4:15 PM 36.1 °F 29.3 °F 28.2 °F 73% 29.95 in 10.0 mi NE 9.2 mph - N/A   Overcast
4:35 PM 35.8 °F 30.1 °F 28.4 °F 75% 29.95 in 10.0 mi NE 6.9 mph - N/A   Overcast
4:55 PM 35.6 °F 29.9 °F 28.8 °F 76% 29.94 in 10.0 mi NNE 6.9 mph - N/A   Mostly Cloudy
5:15 PM 35.4 °F 29.0 °F 28.4 °F 76% 29.94 in 10.0 mi NNE 8.1 mph - N/A   Scattered Clouds
5:35 PM 35.1 °F 28.6 °F 28.4 °F 77% 29.94 in 10.0 mi North 8.1 mph - N/A   Overcast
5:55 PM 34.9 °F 27.7 °F 28.9 °F 79% 29.94 in 10.0 mi NNE 9.2 mph - N/A   Overcast
6:15 PM 34.7 °F 28.8 °F 28.9 °F 79% 29.94 in 10.0 mi NNE 6.9 mph - N/A   Overcast
6:35 PM 34.0 °F 26.6 °F 29.1 °F 82% 29.94 in 10.0 mi NE 9.2 mph - N/A   Scattered Clouds
6:55 PM 34.0 °F 26.0 °F 29.1 °F 82% 29.93 in 10.0 mi NE 10.4 mph - N/A   Clear
7:15 PM 34.0 °F 25.5 °F 29.1 °F 82% 29.92 in 10.0 mi NE 11.5 mph - N/A   Scattered Clouds
7:35 PM 33.8 °F 25.8 °F 28.9 °F 82% 29.91 in 10.0 mi NE 10.4 mph - N/A   Mostly Cloudy
7:55 PM 33.3 °F 23.7 °F 29.1 °F 85% 29.89 in 7.0 mi NE 13.8 mph - N/A   Scattered Clouds
8:15 PM 33.1 °F 23.4 °F 28.8 °F 84% 29.88 in 7.0 mi NE 13.8 mph - N/A   Clear
8:35 PM 33.1 °F 23.4 °F 28.0 °F 82% 29.87 in 10.0 mi NNE 13.8 mph - N/A   Clear
8:55 PM 33.3 °F 24.1 °F 28.2 °F 82% 29.89 in 10.0 mi NE 12.7 mph - N/A   Clear
9:15 PM 33.1 °F 23.4 °F 28.4 °F 83% 29.88 in 7.0 mi NNE 13.8 mph - N/A   Clear
9:35 PM 32.5 °F 24.2 °F 28.4 °F 85% 29.88 in 7.0 mi NNE 10.4 mph - N/A   Clear
9:55 PM 32.4 °F 24.0 °F 28.4 °F 85% 29.88 in 7.0 mi NE 10.4 mph 16.1 mph N/A   Mostly Cloudy
10:15 PM 32.4 °F 24.0 °F 28.4 °F 85% 29.89 in 7.0 mi NE 10.4 mph - N/A   Overcast
10:35 PM 32.2 °F 24.4 °F 28.2 °F 85% 29.88 in 7.0 mi NNE 9.2 mph - N/A   Scattered Clouds
10:55 PM 32.0 °F 24.8 °F 28.0 °F 85% 29.88 in 7.0 mi North 8.1 mph - N/A   Scattered Clouds
11:15 PM 32.0 °F 24.2 °F 28.0 °F 85% 29.86 in 7.0 mi NNE 9.2 mph - N/A   Overcast
11:35 PM 32.0 °F 23.6 °F 28.0 °F 85% 29.85 in 7.0 mi NNE 10.4 mph - N/A   Overcast
11:55 PM 32.0 °F 23.6 °F 28.0 °F 85% 29.84 in 7.0 mi NNE 10.4 mph - N/A   Overcast